Weather History for Coleman, TX

Change the Weather History Date:

Thursday, August 1, 2013

  Actual Average (KABI) Record (KABI)
Temperature  
Mean Temperature 86 °F 84 °F  
Max Temperature 100 °F 95 °F 107 °F (2012)
Min Temperature 72 °F 73 °F 60 °F (1936)
Degree Days  
Heating Degree Days 0 0  
Month to date heating degree days 0  
Since 1 June heating degree days 1  
Since 1 July heating degree days 0  
Cooling Degree Days 21 19  
Month to date cooling degree days 19  
Year to date cooling degree days 1412  
Since 1 June cooling degree days 1015  
Growing Degree Days 36 (Base 50)    
Moisture  
Dew Point 63 °F    
Average Humidity 48    
Maximum Humidity 85    
Minimum Humidity 23    
Precipitation  
Precipitation 0.00 in 0.07 in 4.79 in (1995)
Month to date precipitation 0.07  
Year to date precipitation 14.44  
Sea Level Pressure  
Sea Level Pressure 30.03 in    
Wind  
Wind Speed 3 mph (SSW)    
Max Wind Speed 12 mph    
Max Gust Speed 16 mph    
Visibility 10 miles    
Events      
T = Trace of Precipitation, MM = Missing Value Source: NWS Daily Summary

Daily Weather History Graph

Daily Weather History Graph

Search for Another Location

Airport:

Trip Planner

Search our weather history database for the weather conditions in past years. The results will help you decide how hot, cold, wet, or windy it might be!

Date:

Astronomy

Aug. 01, 2013 Rise Set
Actual Time 6:53 AM CDT 8:33 PM CDT
Civil Twilight 6:26 AM CDT 9:00 PM CDT
Nautical Twilight 5:54 AM CDT 9:32 PM CDT
Astronomical Twilight 5:21 AM CDT 10:05 PM CDT
Moon 2:32 AM CDT (8/1) 4:41 PM CDT (8/1)
Length of Visible Light 14h 33m
Length of Day
13h 40m
Waning Crescent, 23% of the Moon is Illuminated
Aug 1
Waning Crescent
Aug 6
New
Aug 14
First Quarter
Aug 20
Full
Aug 28
Last Quarter

Hourly Weather History & Observations

Time (CDT) Temp. Heat Index Dew Point Humidity Pressure Visibility Wind Dir Wind Speed Gust Speed Precip Events Conditions
12:15 AM 81.0 °F 84.7 °F 70.7 °F 71% 30.05 in 10.0 mi Calm Calm - N/A   Clear
12:35 AM 80.2 °F 83.6 °F 70.5 °F 72% 30.05 in 10.0 mi Calm Calm - N/A   Clear
12:55 AM 81.1 °F 84.0 °F 68.4 °F 65% 30.05 in 10.0 mi Calm Calm - N/A   Clear
1:15 AM 82.0 °F 84.3 °F 66.4 °F 59% 30.05 in 10.0 mi SW 3.5 mph - N/A   Clear
1:35 AM 81.9 °F 83.7 °F 65.1 °F 57% 30.04 in 10.0 mi SSW 3.5 mph - N/A   Clear
1:55 AM 81.5 °F 83.3 °F 64.9 °F 57% 30.04 in 10.0 mi SW 3.5 mph - N/A   Clear
2:15 AM 81.1 °F 82.8 °F 64.6 °F 57% 30.05 in 10.0 mi Calm Calm - N/A   Clear
2:35 AM 80.6 °F 82.2 °F 64.0 °F 57% 30.05 in 10.0 mi Calm Calm - N/A   Clear
2:55 AM 79.7 °F - 65.1 °F 61% 30.05 in 10.0 mi Calm Calm - N/A   Clear
3:15 AM 77.5 °F - 66.4 °F 68% 30.05 in 10.0 mi NNW 3.5 mph - N/A   Clear
3:35 AM 77.5 °F - 66.7 °F 69% 30.04 in 10.0 mi Calm Calm - N/A   Clear
3:55 AM 76.3 °F - 67.3 °F 74% 30.04 in 10.0 mi Calm Calm - N/A   Clear
4:15 AM 76.1 °F - 67.3 °F 74% 30.04 in 10.0 mi North 3.5 mph - N/A   Clear
4:35 AM 76.1 °F - 67.3 °F 74% 30.05 in 10.0 mi North 5.8 mph - N/A   Clear
4:55 AM 75.7 °F - 67.3 °F 75% 30.05 in 10.0 mi Calm Calm - N/A   Clear
5:15 AM 75.7 °F - 67.5 °F 75% 30.06 in 10.0 mi NE 3.5 mph - N/A   Clear
5:35 AM 75.2 °F - 68.0 °F 78% 30.06 in 10.0 mi NE 3.5 mph - N/A   Clear
5:55 AM 75.0 °F - 67.8 °F 78% 30.06 in 10.0 mi Calm Calm - N/A   Clear
6:15 AM 73.4 °F - 67.3 °F 81% 30.06 in 10.0 mi Calm Calm - N/A   Clear
6:35 AM 73.4 °F - 67.5 °F 82% 30.06 in 10.0 mi Calm Calm - N/A   Clear
6:55 AM 72.9 °F - 67.3 °F 83% 30.07 in 10.0 mi SSE 3.5 mph - N/A   Clear
7:15 AM 73.0 °F - 68.2 °F 85% 30.07 in 10.0 mi SSE 3.5 mph - N/A   Clear
7:35 AM 76.3 °F - 67.1 °F 73% 30.08 in 10.0 mi Calm Calm - N/A   Clear
7:55 AM 77.4 °F - 66.4 °F 69% 30.08 in 10.0 mi Calm Calm - N/A   Clear
8:15 AM 79.7 °F - 65.1 °F 61% 30.08 in 10.0 mi Calm Calm - N/A   Clear
8:35 AM 80.6 °F 82.2 °F 64.0 °F 57% 30.09 in 10.0 mi SSW 3.5 mph - N/A   Clear
8:55 AM 80.8 °F 82.2 °F 63.5 °F 56% 30.09 in 10.0 mi SW 4.6 mph - N/A   Clear
9:15 AM 82.0 °F 82.7 °F 61.2 °F 49% 30.08 in 10.0 mi SW 5.8 mph - N/A   Clear
9:35 AM 83.8 °F 84.3 °F 61.3 °F 47% 30.09 in 10.0 mi SW 6.9 mph - N/A   Clear
9:55 AM 85.6 °F 85.9 °F 61.5 °F 44% 30.08 in 10.0 mi SW 5.8 mph - N/A   Clear
10:15 AM 86.5 °F 87.0 °F 62.2 °F 44% 30.09 in 10.0 mi WSW 5.8 mph - N/A   Clear
10:35 AM 89.6 °F 90.8 °F 63.5 °F 42% 30.08 in 10.0 mi WSW 11.5 mph - N/A   Clear
10:55 AM 90.3 °F 91.5 °F 63.7 °F 41% 30.08 in 10.0 mi WSW 8.1 mph 16.1 mph N/A   Clear
11:15 AM 91.4 °F 91.7 °F 61.7 °F 37% 30.09 in 10.0 mi West 9.2 mph - N/A   Clear
11:35 AM 92.5 °F 91.9 °F 59.7 °F 33% 30.09 in 10.0 mi West 10.4 mph - N/A   Clear
11:55 AM 93.6 °F 93.1 °F 59.4 °F 32% 30.08 in 10.0 mi West 9.2 mph - N/A   Clear
12:15 PM 94.1 °F 93.1 °F 58.5 °F 30% 30.08 in 10.0 mi WSW 9.2 mph - N/A   Clear
12:35 PM 95.0 °F 94.0 °F 58.5 °F 29% 30.07 in 10.0 mi West 4.6 mph - N/A   Clear
12:55 PM 95.7 °F 94.7 °F 58.1 °F 28% 30.07 in 10.0 mi West 8.1 mph - N/A   Clear
1:15 PM 96.8 °F 95.8 °F 57.6 °F 27% 30.06 in 10.0 mi Calm Calm - N/A   Clear
1:35 PM 97.0 °F 96.1 °F 57.7 °F 27% 30.05 in 10.0 mi SW 5.8 mph - N/A   Clear
1:55 PM 97.7 °F 97.1 °F 58.8 °F 27% 30.04 in 10.0 mi NNW 3.5 mph - N/A   Clear
2:15 PM 98.4 °F 97.8 °F 58.3 °F 26% 30.03 in 10.0 mi Calm Calm - N/A   Clear
2:35 PM 99.0 °F 98.6 °F 58.8 °F 26% 30.03 in 10.0 mi Calm Calm - N/A   Clear
2:55 PM 98.8 °F 98.3 °F 58.5 °F 26% 30.01 in 10.0 mi East 3.5 mph - N/A   Clear
3:15 PM 99.1 °F 99.3 °F 59.2 °F 27% 30.01 in 10.0 mi Calm Calm - N/A   Clear
3:35 PM 99.5 °F 98.9 °F 58.3 °F 25% 30.01 in 10.0 mi ESE 3.5 mph - N/A   Clear
3:55 PM 99.3 °F 98.6 °F 58.1 °F 25% 30.00 in 10.0 mi SE 5.8 mph - N/A   Clear
4:15 PM 100.4 °F 100.2 °F 58.1 °F 25% 29.99 in 10.0 mi Calm Calm - N/A   Clear
4:35 PM 100.4 °F 99.7 °F 57.2 °F 24% 29.98 in 10.0 mi South 6.9 mph - N/A   Clear
4:55 PM 100.0 °F 98.8 °F 56.3 °F 23% 29.98 in 10.0 mi South 4.6 mph - N/A   Clear
5:15 PM 100.2 °F 99.5 °F 57.0 °F 24% 29.97 in 10.0 mi South 8.1 mph - N/A   Clear
5:35 PM 99.9 °F 98.5 °F 55.9 °F 23% 29.97 in 10.0 mi SSW 5.8 mph - N/A   Clear
5:55 PM 99.9 °F 99.0 °F 57.2 °F 24% 29.96 in 10.0 mi SSE 5.8 mph - N/A   Clear
6:15 PM 99.0 °F 98.1 °F 57.2 °F 25% 29.96 in 10.0 mi South 5.8 mph - N/A   Clear
6:35 PM 98.8 °F 98.3 °F 57.9 °F 26% 29.96 in 10.0 mi South 5.8 mph - N/A   Clear
6:55 PM 97.7 °F 97.1 °F 58.5 °F 27% 29.96 in 10.0 mi South 5.8 mph - N/A   Clear
7:15 PM 97.0 °F 96.9 °F 59.5 °F 29% 29.96 in 10.0 mi South 5.8 mph - N/A   Clear
7:35 PM 95.7 °F 95.9 °F 60.8 °F 31% 29.96 in 10.0 mi SSW 3.5 mph - N/A   Clear
7:55 PM 93.6 °F 93.4 °F 60.8 °F 33% 29.96 in 10.0 mi SW 3.5 mph - N/A   Clear
8:15 PM 92.3 °F 92.0 °F 60.1 °F 34% 29.96 in 10.0 mi SW 4.6 mph - N/A   Clear
8:35 PM 90.5 °F 90.4 °F 61.2 °F 37% 29.97 in 10.0 mi SW 3.5 mph - N/A   Clear
8:55 PM 88.9 °F 89.4 °F 62.4 °F 41% 29.97 in 10.0 mi Calm Calm - N/A   Clear
9:15 PM 88.2 °F 89.6 °F 64.4 °F 45% 29.97 in 10.0 mi Calm Calm - N/A   Clear
9:35 PM 87.3 °F 88.6 °F 64.2 °F 46% 29.97 in 10.0 mi Calm Calm - N/A   Clear
9:55 PM 86.9 °F 87.8 °F 63.1 °F 45% 29.98 in 10.0 mi Calm Calm - N/A   Clear
10:15 PM 85.1 °F 87.1 °F 65.8 °F 52% 29.98 in 10.0 mi Calm Calm - N/A   Clear
10:35 PM 84.0 °F 86.3 °F 66.2 °F 55% 29.98 in 10.0 mi Calm Calm - N/A   Clear
10:55 PM 84.9 °F 86.3 °F 64.6 °F 50% 29.99 in 10.0 mi SSE 4.6 mph - N/A   Clear
11:15 PM 84.4 °F 85.2 °F 62.6 °F 48% 29.99 in 10.0 mi South 6.9 mph - N/A   Clear
11:35 PM 84.2 °F 85.0 °F 62.6 °F 48% 29.99 in 10.0 mi South 6.9 mph - N/A   Clear
11:55 PM 84.2 °F 85.0 °F 62.6 °F 48% 29.98 in 10.0 mi South 6.9 mph - N/A   Clear